Flag for Germany Weather past 2 weeks in Falkensee, Brandenburg, Germany

Now
48 °F

Sunny.


Feels Like: 47 °F
Forecast: 40 / 61 °F
Wind: 3 mph from Northwest

Location: Berlin-Tegel

Current Time: Apr 19, 2015 at 10:15:19 AM

Latest Report: Apr 19, 2015 at 9:20 AM


Visibility: 10 mi

Pressure: 30.21 "Hg

Humidity: 46%

Dew point: 28 °F

Location of FalkenseeLocation

Historic Weather in Falkensee — Graph

°F

Falkensee temperature yesterday

Maximum temperature yesterday: 52 °F (at 3:50 PM)
Minimum temperature yesterday: 34 °F (at 6:20 AM)
Average temperature yesterday: 44 °F

Past Weeks' High & Low Weather Summary

 TemperatureHumidityPressure
High73 °F (Apr 15, 3:50 PM)100% (Apr 7, 4:50 AM)30.54 "Hg (Apr 7, 4:50 AM)
Low27 °F (Apr 5, 3:20 AM)22% (Apr 5, 3:50 PM)29.80 "Hg (Apr 15, 6:50 PM)
Average48 °F61%30.20 "Hg
* Reported Apr 4 9:20 AM — Apr 19 9:20 AM, Falkensee, Weather by CustomWeather, © 2015

Note: Actual official high and low records may vary slightly from our data, if they occured in-between our weather recording intervals... More about our weather records

Advertising

Falkensee weather history for previous 24 hours

 ConditionsComfort  
Time TempWeatherWind HumidityBarometerVisibility
9:20 AM
Sun, Apr 19
48 °FSunny.3 mph46%30.21 "Hg10 mi
8:50 AM46 °FSunny.3 mph57%30.21 "Hg10 mi
8:20 AM45 °FSunny.2 mph57%30.21 "Hg10 mi
7:50 AM41 °FSunny.3 mph70%30.18 "Hg10 mi
7:20 AM39 °FSunny.1 mph75%30.18 "Hg10 mi
6:50 AM37 °FPassing clouds.1 mph81%30.18 "HgN/A
6:20 AM36 °FPassing clouds.1 mph81%30.18 "HgN/A
5:20 AM34 °FClear.1 mph87%30.18 "Hg10 mi
4:50 AM34 °FClear.1 mph87%30.18 "Hg10 mi
4:20 AM34 °FClear.1 mph87%30.18 "Hg10 mi
3:50 AM34 °FClear.1 mph87%30.18 "Hg10 mi
3:20 AM34 °FClear.1 mph87%30.18 "Hg10 mi
2:50 AM34 °FClear.1 mph87%30.18 "Hg10 mi
2:20 AM34 °FClear.2 mph81%30.18 "Hg10 mi
1:50 AM34 °FClear.1 mph81%30.21 "Hg10 mi
1:20 AM34 °FClear.1 mph81%30.21 "Hg10 mi
12:50 AM36 °FClear.1 mph81%30.21 "Hg10 mi
12:20 AM37 °FClear.2 mph75%30.21 "Hg10 mi
11:50 PM
Sat, Apr 18
39 °FClear.1 mph65%30.21 "Hg10 mi
11:20 PM39 °FClear.1 mph70%30.21 "Hg10 mi
10:50 PM41 °FClear.2 mph66%30.21 "Hg10 mi
10:20 PM43 °FClear.1 mph61%30.21 "Hg10 mi
9:50 PM46 °FClear.3 mph50%30.21 "Hg10 mi
9:20 PM46 °FClear.3 mph50%30.21 "Hg10 mi
8:50 PM48 °FSunny.3 mph46%30.21 "Hg10 mi
8:20 PM48 °FSunny.5 mph46%30.21 "Hg10 mi
7:50 PM50 °FSunny.7 mph40%30.21 "Hg10 mi
7:20 PM52 °FSunny.6 mph38%30.21 "Hg10 mi
6:50 PM52 °FSunny.8 mph38%30.21 "Hg10 mi
6:20 PM52 °FSunny.10 mph35%30.21 "Hg10 mi
5:50 PM52 °FSunny.6 mph38%30.21 "Hg10 mi
5:20 PM52 °FSunny.7 mph38%30.21 "Hg10 mi
4:50 PM52 °FSunny.8 mph35%30.21 "Hg10 mi
4:20 PM52 °FSunny.7 mph38%30.24 "Hg10 mi
3:50 PM52 °FPassing clouds.7 mph38%30.24 "HgN/A
3:20 PM50 °FPartly sunny.9 mph40%30.24 "HgN/A
2:50 PM50 °FPartly sunny.9 mph40%30.24 "HgN/A
2:20 PM50 °FPartly sunny.8 mph40%30.27 "HgN/A
1:50 PM50 °FPartly sunny.10 mph40%30.27 "HgN/A
1:20 PM50 °FPartly sunny.9 mph40%30.27 "HgN/A
12:50 PM48 °FPartly sunny.10 mph46%30.27 "HgN/A
12:20 PM48 °FPartly sunny.9 mph46%30.27 "HgN/A
11:50 AM46 °FPartly sunny.13 mph53%30.27 "HgN/A
11:20 AM46 °FPartly sunny.9 mph53%30.27 "HgN/A
10:50 AM46 °FPartly sunny.8 mph62%30.27 "HgN/A
10:20 AM46 °FBroken clouds.7 mph66%30.27 "HgN/A
Weather by CustomWeather, © 2015

See weather overviewHow to use our weather pages